Hibbing, MN

1:08 PM CDT on March 24, 2017 (GMT -0500)
Chisholm-hibbing

Weather History for KHIB - February, 2012

Change the Weather History Date:

Friday, February 3, 2012

  Actual Average Record
Temperature  
Mean Temperature 26 °F -  
Max Temperature 37 °F 17 °F 46 °F (1991)
Min Temperature 12 °F -5 °F -32 °F (1989)
Degree Days  
Heating Degree Days 40    
Moisture  
Dew Point 23 °F    
Average Humidity 92    
Maximum Humidity 100    
Minimum Humidity 65    
Precipitation  
Precipitation 0.00 in - - ()
Sea Level Pressure  
Sea Level Pressure 30.48 in    
Wind  
Wind Speed 2 mph (WNW)    
Max Wind Speed 8 mph    
Max Gust Speed -    
Visibility 6 miles    
Events Fog , Snow    
Averages and records for this station are not official NWS values.
T = Trace of Precipitation, MM = Missing Value Source: NWS Daily Summary

Daily Weather History Graph

Daily Weather History Graph

Search for Another Location

Airport or City:

Trip Planner

Search our weather history database for the weather conditions in past years. The results will help you decide how hot, cold, wet, or windy it might be!

Date:

Astronomy

Feb. 03, 2012 Rise Set
Actual Time 7:35 AM CST 5:15 PM CST
Civil Twilight 7:02 AM CST 5:48 PM CST
Nautical Twilight 6:25 AM CST 6:24 PM CST
Astronomical Twilight 5:50 AM CST 7:00 PM CST
Moon 1:08 PM CST (2/3) 4:20 AM CST (2/3)
Length of Visible Light 10h 45m
Length of Day
9h 40m
Waxing Gibbous, 82% of the Moon is Illuminated
Feb 3
Waxing Gibbous
Feb 7
Full
Feb 14
Last Quarter
Feb 21
New
Feb 29
First Quarter

Hourly Weather History & Observations

Time (CST) Temp. Windchill Dew Point Humidity Pressure Visibility Wind Dir Wind Speed Gust Speed Precip Events Conditions
12:25 AM 28.4 °F - 26.6 °F 93% 30.39 in 10.0 mi Calm Calm - N/A   Overcast
12:53 AM 28.9 °F - 27.0 °F 92% 30.46 in 10.0 mi Calm Calm - N/A   Overcast
1:53 AM 28.0 °F - 27.0 °F 96% 30.48 in 10.0 mi Calm Calm - N/A   Overcast
2:53 AM 28.0 °F - 27.0 °F 96% 30.51 in 10.0 mi Calm Calm - N/A   Overcast
3:53 AM 28.0 °F - 27.0 °F 96% 30.50 in 10.0 mi Calm Calm - N/A   Overcast
4:53 AM 28.0 °F 24.2 °F 27.0 °F 96% 30.50 in 7.0 mi SW 3.5 mph - N/A   Overcast
5:53 AM 27.0 °F 23.0 °F 27.0 °F 100% 30.51 in 2.5 mi NNW 3.5 mph - N/A   Overcast
6:03 AM 26.6 °F 22.6 °F 26.6 °F 100% 30.44 in 1.2 mi NNW 3.5 mph - N/A   Overcast
6:38 AM 26.6 °F 22.6 °F 26.6 °F 100% 30.45 in 0.8 mi West 3.5 mph - N/A   Overcast
6:53 AM 27.0 °F - 27.0 °F 100% 30.52 in 0.5 mi Calm Calm - N/A Fog Light Freezing Fog
7:53 AM 28.0 °F - 27.0 °F 96% 30.55 in 0.2 mi Calm Calm - N/A Fog Light Freezing Fog
8:53 AM 27.0 °F 23.0 °F 26.1 °F 96% 30.57 in 0.2 mi Variable 3.5 mph - N/A Fog Light Freezing Fog
9:14 AM 26.6 °F 21.2 °F 26.6 °F 100% 30.50 in 0.8 mi WNW 4.6 mph - N/A   Overcast
9:36 AM 26.6 °F 21.2 °F 26.6 °F 100% 30.50 in 2.0 mi NNW 4.6 mph - N/A   Overcast
9:47 AM 26.6 °F 21.2 °F 26.6 °F 100% 30.50 in 1.8 mi NW 4.6 mph - 0.00 in Snow Light Snow
9:53 AM 27.0 °F - 26.1 °F 96% 30.56 in 2.0 mi Calm Calm - 0.00 in Snow Light Snow
10:03 AM 26.6 °F - 24.8 °F 93% 30.49 in 3.0 mi Calm Calm - 0.00 in Snow Light Snow
10:53 AM 27.0 °F 21.6 °F 25.0 °F 92% 30.55 in 10.0 mi NNW 4.6 mph - 0.00 in   Overcast
11:53 AM 28.0 °F 21.7 °F 26.1 °F 92% 30.54 in 10.0 mi NW 5.8 mph - N/A   Overcast
12:53 PM 28.9 °F 21.9 °F 27.0 °F 92% 30.54 in 10.0 mi NW 6.9 mph - N/A   Overcast
1:53 PM 30.9 °F 24.3 °F 27.0 °F 85% 30.51 in 10.0 mi NW 6.9 mph - N/A   Mostly Cloudy
2:08 PM 32.0 °F 26.4 °F 26.6 °F 80% 30.43 in 10.0 mi NW 5.8 mph - N/A   Scattered Clouds
2:53 PM 36.0 °F 30.3 °F 27.0 °F 70% 30.49 in 10.0 mi North 6.9 mph - N/A   Clear
3:53 PM 37.0 °F 31.0 °F 26.1 °F 65% 30.48 in 10.0 mi North 8.1 mph - N/A   Clear
4:53 PM 36.0 °F - 26.1 °F 67% 30.49 in 10.0 mi Calm Calm - N/A   Clear
5:53 PM 24.1 °F 19.7 °F 21.0 °F 88% 30.51 in 10.0 mi WSW 3.5 mph - N/A   Clear
6:53 PM 21.0 °F 14.6 °F 19.0 °F 92% 30.51 in 10.0 mi WNW 4.6 mph - N/A   Clear
7:53 PM 28.0 °F 21.7 °F 25.0 °F 88% 30.51 in 10.0 mi West 5.8 mph - N/A   Clear
8:53 PM 21.9 °F 17.2 °F 21.0 °F 96% 30.51 in 10.0 mi West 3.5 mph - N/A   Clear
9:45 PM 23.0 °F - 21.2 °F 93% 30.43 in 1.5 mi Calm Calm - N/A   Clear
9:53 PM 21.0 °F - 19.9 °F 96% 30.51 in 0.2 mi Calm Calm - N/A Fog Light Freezing Fog
10:03 PM 21.2 °F - 17.6 °F 86% 30.43 in 1.0 mi Calm Calm - N/A   Clear
10:06 PM 19.4 °F - 17.6 °F 93% 30.43 in 4.0 mi Calm Calm - N/A   Clear
10:40 PM 17.6 °F - 15.8 °F 93% 30.42 in 1.5 mi Calm Calm - N/A   Clear
10:50 PM 17.6 °F - 15.8 °F 93% 30.42 in 1.8 mi Calm Calm - N/A   Partly Cloudy
10:53 PM 17.1 °F - 15.1 °F 92% 30.50 in 3.0 mi Calm Calm - N/A   Partly Cloudy
11:13 PM 15.8 °F - 12.2 °F 86% 30.42 in 1.8 mi Calm Calm - N/A   Clear
11:21 PM 14.0 °F - 12.2 °F 93% 30.41 in 0.5 mi Calm Calm - N/A Fog Light Freezing Fog
11:27 PM 14.0 °F 8.2 °F 12.2 °F 93% 30.42 in 2.0 mi WSW 3.5 mph - N/A   Partly Cloudy
11:34 PM 14.0 °F 8.2 °F 12.2 °F 93% 30.42 in 10.0 mi West 3.5 mph - N/A   Partly Cloudy
11:53 PM 12.9 °F 6.9 °F 10.0 °F 88% 30.50 in 10.0 mi West 3.5 mph - N/A   Clear